Regional Weather Roundup
Issued by NWS

Home | Current Version | Previous Version | Graphics & Text | Print | Product List | Glossary Off
Versions: 1 2 3 4 5 6 7 8 9 10 11 12 13 14 15 16 17 18 19 20 21 22 23 24 25 26 27 28 29 30 31 32 33 34 35 36 37 38 39 40 41 42 43 44 45 46 47 48 49 50

996
ASUS43 KMKX 261521
RWRWI

WISCONSIN REGIONAL WEATHER ROUNDUP
NATIONAL WEATHER SERVICE MILWAUKEE/SULLIVAN WI
1000 AM CDT WED APR 26 2017

NOTE: "FAIR" INDICATES FEW OR NO CLOUDS BELOW 12,000 FEET WITH NO
SIGNIFICANT WEATHER AND/OR OBSTRUCTIONS TO VISIBILITY.

WIZ001-002-006>008-014>016-023>028-261600-
NORTHWEST WISCONSIN

CITY           SKY/WX    TMP DP  RH WIND       PRES   REMARKS
SUPERIOR ARPT  LGT SNOW  32  32  97 NE17G29   29.60F WCI  21
ASHLAND        MIX PCPN  32  30  92 NE21G30   29.56F WCI  20
HAYWARD        CLOUDY    33  30  88 NE15      29.49F WCI  23
SIREN          LGT RAIN  34  33  95 NE15G21   29.51S WCI  24
CUMBERLAND     LGT RAIN  32  32 100 N9        29.46S WCI  24
RICE LAKE      MIX PCPN  36  35  96 N12G18    29.46S WCI  27
CHETEK         RAIN      37  37  99 N6        29.44S WCI  32
LADYSMITH      RAIN      37  36  96 N12       29.44S WCI  30
EAU CLAIRE     RAIN      39  38  96 N7        29.41R FOG     WCI  34
MENOMONIE      RAIN      38  38 100 NW10      29.43S WCI  32
NEW RICHMOND   LGT RAIN  36  35  97 N12       29.48S WCI  27
OSCEOLA        LGT RAIN  36  36 100 N7        29.52S WCI  30
$$

WIZ003>005-009-010-017-018-261600-
NORTH CENTRAL WISCONSIN

CITY           SKY/WX    TMP DP  RH WIND       PRES   REMARKS
MANITOWISH WTR CLOUDY    34  34 100 NE10      29.44F FOG     WCI  26
ARBOR VITAE    DRIZZLE   39  38  95 NE6       29.42F WCI  35
WOODRUFF       DRIZZLE   39  38  95 NE6       29.42F WCI  35
RHINELANDER    LGT RAIN  48  48 100 NE7       29.42R
EAGLE RIVER    LGT RAIN  41  41 100 NE8       29.43F
LAND O LAKES   LGT RAIN  37  37 100 NE8       29.47F VSB 1   WCI  30
PHILLIPS       LGT RAIN  37  37 100 N14       29.42S WCI  28
TOMAHAWK       RAIN      47  46  97 CALM      29.39F
MEDFORD        DRIZZLE   49  49  98 NE6       29.37F
MERRILL        LGT RAIN  52  52 100 E8        29.38F
$$

WIZ029-030-035-036-043>047-261600-
CENTRAL WISCONSIN

CITY           SKY/WX    TMP DP  RH WIND       PRES   REMARKS
WAUSAU         CLOUDY    54  53  97 E9        29.35F FOG
MOSINEE        CLOUDY    54  54 100 E9        29.38F FOG
MARSHFIELD     CLOUDY    55  53  93 E8        29.35F FOG
STEVENS POINT  LGT RAIN  54  54 100 E7        29.37F
WAUPACA        RAIN      59  58  96 E6        29.38F
WAUTOMA        LGT RAIN  59  57  93 SE9       29.37
WISC RAPIDS    CLOUDY    59  57  93 E5        29.36S
CAMP DOUGLAS   LGT RAIN  61  57  88 S6        29.36R FOG
$$

WIZ011>013-019>022-031-037>040-048>050-261600-
NORTHEAST WISCONSIN

CITY           SKY/WX    TMP DP  RH WIND       PRES   REMARKS
ANTIGO         CLOUDY    51  51 100 E9        29.39F
SHAWANO        LGT RAIN  55  53  91 NE5       29.41F
OCONTO         CLOUDY    57  52  82 NE3       29.41F
STURGEON BAY   CLOUDY    60  53  77 S20       29.42F
GREEN BAY      PTSUNNY   65  58  78 S9        29.39F
MANITOWOC      CLOUDY    52  47  83 SE15      29.42F
APPLETON       CLOUDY    63  52  67 S7        29.38F
CLINTONVILLE   HVY RAIN  52  52 100 E7        29.39F
OSHKOSH        CLOUDY    63  55  75 S13       29.38F
$$

WIZ032>034-041-042-053>061-261600-
SOUTHWEST WISCONSIN

CITY           SKY/WX    TMP DP  RH WIND       PRES   REMARKS
LA CROSSE      LGT RAIN  58  56  93 CALM      29.36R FOG
SPARTA         RAIN      55  55 100 CALM      29.36R
VIROQUA        CLOUDY    57  57  98 SW9       29.37S
BOSCOBEL       LGT RAIN  60  57  89 SW7       29.39R FOG
PRAIRIE DU CHI LGT RAIN  57  54  91 W3        29.37F
PLATTEVILLE    CLOUDY    59  59 100 W12       29.41R
$$

WIZ056-057-062-063-064-067-068-261600-
SOUTH CENTRAL WISCONSIN

CITY           SKY/WX    TMP DP  RH WIND       PRES   REMARKS
REEDSBURG      RAIN      60  58  94 S7        29.37R
BARABOO/DELLS  RAIN      60  54  81 S13       29.37R
LONE ROCK      RAIN      60  58  92 SW5       29.39R VSB 3/4
MINERAL POINT  LGT RAIN  61  61 100 SW10      29.39R
MADISON        LGT RAIN  59  57  93 SW3       29.36F FOG
MIDDLETON      CLOUDY    60  57  91 S6        29.37F
WATERTOWN      LGT RAIN  60  60 100 S5        29.38F
MONROE         RAIN      57  55  94 S10       29.40R
JANESVILLE     LGT RAIN  61  61 100 S12       29.39F FOG
$$

WIZ051-052-058>065-066-070>072-261600-
SOUTHEAST WISCONSIN

CITY           SKY/WX    TMP DP  RH WIND       PRES   REMARKS
MILWAUKEE      CLOUDY    67  57  70 S5        29.40F
WAUKESHA       CLOUDY    61  55  82 SW14      29.42R
MILWAUKEE/TIMM RAIN      63  55  77 SW8G17    29.41R
RACINE         CLOUDY    60  51  72 SE9       29.42S
KENOSHA        CLOUDY    67  55  65 SW14      29.40F
FOND DU LAC    CLOUDY    64  54  69 S8        29.39F
SHEBOYGAN      CLOUDY    57  52  83 S10       29.41F HAZE
WEST BEND      RAIN      63  55  77 S8G20     29.40R
JUNEAU         LGT RAIN  61  55  81 S10       29.40F
$$

LSZ147-162-261600-
LAKE SUPERIOR

STATION/POSITION TIME  TEMP    WIND        PRES    WAVE
                       AIR SEA DIR/SP/G            HT/PER
                 (UTC) (F)     (DEG/KT/KT) (MB)    (FT/S)
DEVILS ISLAND    1500   32      40/ 30/ 35 1003.1F
PORT WING        1440   33      40/ 31/ 45 1002.4F
SAXON HARBOR     1440   34      40/ 26/ 33 1000.7F
$$

LMZ867-665-643>646-261600-
LAKE MICHIGAN

STATION/POSITION TIME  TEMP    WIND        PRES    WAVE
                       AIR SEA DIR/SP/G            HT/PER
                 (UTC) (F)     (DEG/KT/KT) (MB)    (FT/S)
CHAMBERS ISLAND  1440   47     340/  4/  5  997.6F
N MID LAKE BUOY  1450   44 37  110/ 10/ 10  999.3F   2/ 5
NORTHPORT PIER   1440   49     120/  7/ 12  998.3F
KEWAUNEE LAKESHO 1454   48     170/  8/  9  996.4F
SHEBOYGAN LAKESH 1500   45     170/  5/  6  996.1F
PORT WASHINGTON  1440   50     190/  6/  8  997.6S
MILWAUKEE LAKESH 1500   49     140/  6/  9   N/A
S MID LAKE BUOY  1450   49 41  130/ 14/ 16  997.1F   2/ 4
KENOSHA   LAKESH 1500   51     170/ 11/ 15  996.3
$$

TC  - TEMPERATURE IN CELSIUS
VSB - VISIBILITY IN STATUTE MILES
WCI - WIND CHILL INDEX
HX  - HEAT INDEX





USA.gov is the U.S. government's official web portal to all federal, state and local government web resources and services.